Home   Weather   Portland   Past weeks

Flag for USA Past Weather in Portland, Oregon, USA — Yesterday and Last 2 Weeks

Now
66 °F

Passing clouds.


Feels Like: 66 °F
Forecast: 56 / 86 °F
Wind: 5 mph from Northwest

Location: Portland International Airport

Current Time: Sep 26, 2016 at 10:34:23 AM

Latest Report: Sep 26, 2016 at 9:53 AM


Visibility: 10 mi

Pressure: 30.06 "Hg

Humidity: 63%

Dew Point: 53 °F

Location of PortlandLocation

Past Weather in Portland — Graph

°F

Portland Temperature Yesterday

Maximum temperature yesterday: 83 °F (at 4:53 PM)
Minimum temperature yesterday: 50 °F (at 4:53 AM)
Average temperature yesterday: 65 °F

High & Low Weather Summary for the Past Weeks

 TemperatureHumidityPressure
High83 °F (Sep 25, 4:53 PM)97% (Sep 24, 3:53 AM)30.40 "Hg (Sep 24, 3:53 AM)
Low47 °F (Sep 22, 6:53 AM)14% (Sep 13, 2:53 PM)29.88 "Hg (Sep 13, 4:53 PM)
Average62 °F67%30.10 "Hg
* Reported Sep 11 8:53 AM — Sep 26 8:53 AM, Portland, Weather by CustomWeather, © 2016

Note: Actual official high and low records may vary slightly from our data, if they occured in-between our weather recording intervals... More about our weather records

Advertising

Portland Weather History for the Previous 24 Hours

Scroll right to see more
 ConditionsComfort  
Time TempWeatherWind HumidityBarometerVisibility
8:53 AM
Mon, Sep 26
63 °FPassing clouds.3 mph70%30.07 "Hg10 mi
7:53 AM59 °FPassing clouds.No wind81%30.07 "Hg10 mi
6:53 AM55 °FPassing clouds.6 mph90%30.07 "Hg10 mi
5:53 AM57 °FClear.3 mph87%30.07 "Hg10 mi
4:53 AM57 °FClear.No wind87%30.07 "Hg10 mi
3:53 AM58 °FClear.5 mph84%30.08 "Hg10 mi
2:53 AM60 °FClear.5 mph83%30.10 "Hg10 mi
1:53 AM61 °FClear.3 mph83%30.11 "Hg10 mi
12:53 AM63 °FClear.3 mph78%30.12 "Hg10 mi
11:53 PM
Sun, Sep 25
64 °FClear.No wind81%30.14 "Hg10 mi
10:53 PM66 °FClear.3 mph75%30.15 "Hg10 mi
9:53 PM68 °FPassing clouds.No wind70%30.16 "Hg10 mi
8:53 PM70 °FPassing clouds.5 mph66%30.17 "Hg10 mi
7:53 PM74 °FPassing clouds.5 mph56%30.17 "Hg10 mi
6:53 PM76 °FPartly sunny.9 mph67%30.18 "Hg10 mi
5:53 PM83 °FScattered clouds.9 mph43%30.40 "Hg10 mi
4:53 PM83 °FScattered clouds.9 mph43%30.40 "Hg10 mi
3:53 PM82 °FPassing clouds.9 mph44%30.24 "Hg10 mi
2:53 PM80 °FPassing clouds.9 mph34%30.27 "Hg10 mi
1:53 PM77 °FScattered clouds.9 mph36%30.29 "Hg10 mi
12:53 PM72 °FPassing clouds.8 mph46%30.32 "Hg10 mi
11:53 AM68 °FPassing clouds.6 mph47%30.34 "Hg10 mi
10:53 AM63 °FPassing clouds.6 mph60%30.37 "Hg10 mi
Weather by CustomWeather, © 2016

See weather overviewHow to use our weather pages